Location: Chateh
(58.6667°N, 118.6000°W)
Time: 07:20:49
(UTC+00:00)

Gurwin Techsat 1B - Pass Details

Date: 04 December 2023
Orbit: 810 x 813 km, 98.9° (Epoch: 04 March)

Event Time Altitude Azimuth Distance (km) Brightness Sun altitude
Rises 23:55:05 0° 221° (SW) 3,326 13.7 -5.8°
Reaches altitude 10° 23:58:36 10° 246° (WSW) 2,401 12.8 -6.2°
Maximum altitude 00:01:24 14° 278° (W) 2,116 11.6 -6.5°
Drops below altitude 10° 00:04:12 10° 310° (NW) 2,411 11.3 -6.8°
Sets 00:07:46 0° 335° (NNW) 3,350 11.7 -7.2°
